Weather History for KROC - January, 2013

Change the Weather History Date:

Wednesday, January 30, 2013

  Actual Average Record
Temperature  
Mean Temperature 58 °F 24 °F  
Max Temperature 64 °F 32 °F 64 °F (2013)
Min Temperature 52 °F 17 °F -12 °F (1873)
Degree Days  
Heating Degree Days 7 41  
Month to date heating degree days 1044 1213  
Since 1 July heating degree days 3220 3666  
Cooling Degree Days 0 0  
Month to date cooling degree days 0 0  
Year to date cooling degree days 0 0  
Growing Degree Days 8 (Base 50)    
Moisture  
Dew Point 50 °F    
Average Humidity 77    
Maximum Humidity 93    
Minimum Humidity 60    
Precipitation  
Precipitation 0.05 in 0.07 in 1.24 in (1966)
Month to date precipitation 1.36 2.34  
Year to date precipitation 1.36 2.34  
Snow  
Snow 0.00 in 0.80 in 18.00 in (1966)
Month to date snowfall 11.1 27.3  
Since 1 July snowfall 34.5 56.5  
Snow Depth 0.00 in    
Sea Level Pressure  
Sea Level Pressure 29.38 in    
Wind  
Wind Speed 13 mph (SSW)    
Max Wind Speed 28 mph    
Max Gust Speed 38 mph    
Visibility 10 miles    
Events Rain    
T = Trace of Precipitation, MM = Missing Value Source: NWS Daily Summary

Daily Weather History Graph

Daily Weather History Graph

Search for Another Location

Airport or City:

Trip Planner

Search our weather history database for the weather conditions in past years. The results will help you decide how hot, cold, wet, or windy it might be!

Date:

Astronomy

Jan. 30, 2013 Rise Set
Actual Time 7:27 AM EST 5:20 PM EST
Civil Twilight 6:57 AM EST 5:51 PM EST
Nautical Twilight 6:23 AM EST 6:25 PM EST
Astronomical Twilight 5:50 AM EST 6:58 PM EST
Moon 9:25 PM EST (1/30) 8:47 AM EST (1/30)
Length of Visible Light 10h 53m
Length of Day
9h 52m
Waning Gibbous, 88% of the Moon is Illuminated
Jan 30
Waning Gibbous
Feb 3
Last Quarter
Feb 10
New
Feb 17
First Quarter
Feb 25
Full

Hourly Weather History & Observations

Time (EST) Temp. Dew Point Humidity Pressure Visibility Wind Dir Wind Speed Gust Speed Precip Events Conditions
12:54 AM 55.9 °F 51.1 °F 84% 29.71 in 10.0 mi South 9.2 mph - 0.01 in   Overcast
1:54 AM 54.0 °F 50.0 °F 86% 29.66 in 10.0 mi SE 4.6 mph - N/A   Overcast
2:54 AM 55.0 °F 48.9 °F 80% 29.61 in 10.0 mi South 9.2 mph - N/A   Overcast
3:54 AM 55.9 °F 48.9 °F 77% 29.57 in 10.0 mi South 9.2 mph - 0.01 in   Overcast
4:54 AM 57.9 °F 48.9 °F 72% 29.53 in 10.0 mi South 10.4 mph - N/A   Overcast
5:54 AM 60.1 °F 48.9 °F 67% 29.49 in 10.0 mi South 15.0 mph 25.3 mph N/A   Overcast
6:54 AM 60.8 °F 48.2 °F 63% 29.46 in 10.0 mi South 16.1 mph - N/A   Overcast
7:54 AM 57.9 °F 48.0 °F 70% 29.43 in 10.0 mi South 11.5 mph 21.9 mph N/A   Overcast
8:54 AM 57.9 °F 48.0 °F 70% 29.41 in 10.0 mi South 12.7 mph - N/A   Overcast
9:54 AM 59.0 °F 48.0 °F 67% 29.38 in 10.0 mi SSW 13.8 mph 24.2 mph N/A   Overcast
10:54 AM 60.1 °F 50.0 °F 69% 29.35 in 10.0 mi South 9.2 mph - 0.00 in Rain Light Rain
11:54 AM 60.1 °F 52.0 °F 75% 29.36 in 6.0 mi SW 21.9 mph 31.1 mph 0.00 in Rain Light Rain
12:54 PM 61.0 °F 54.0 °F 78% 29.29 in 10.0 mi South 17.3 mph 24.2 mph 0.01 in Rain Light Rain
1:54 PM 63.0 °F 52.0 °F 67% 29.29 in 10.0 mi SSW 12.7 mph 23.0 mph 0.00 in   Overcast
2:54 PM 64.0 °F 52.0 °F 65% 29.27 in 10.0 mi SSW 27.6 mph 36.8 mph N/A   Overcast
3:54 PM 64.0 °F 50.0 °F 60% 29.26 in 10.0 mi SSW 23.0 mph 33.4 mph N/A   Overcast
4:54 PM 62.1 °F 51.1 °F 67% 29.29 in 10.0 mi West 10.4 mph 21.9 mph N/A   Overcast
5:54 PM 60.1 °F 50.0 °F 69% 29.28 in 10.0 mi SW 12.7 mph - N/A   Overcast
6:54 PM 60.1 °F 48.9 °F 67% 29.23 in 10.0 mi South 6.9 mph - N/A   Overcast
7:54 PM 59.0 °F 48.0 °F 67% 29.20 in 10.0 mi South 12.7 mph 21.9 mph N/A   Overcast
8:54 PM 57.0 °F 48.0 °F 72% 29.20 in 10.0 mi SW 12.7 mph - N/A   Overcast
9:54 PM 57.0 °F 48.9 °F 74% 29.17 in 10.0 mi South 5.8 mph - 0.00 in Rain Light Rain
10:54 PM 55.9 °F 50.0 °F 80% 29.10 in 10.0 mi South 10.4 mph - 0.01 in Rain Light Rain
11:54 PM 55.9 °F 50.0 °F 80% 29.05 in 10.0 mi South 10.4 mph 19.6 mph 0.01 in Rain Light Rain